Theta_e
313 312 311 314 319 320 323 324 325 326 327 326 327 329 328 326 325 324 323 323 323 323
314 313 312 312 315 319 322 325 325 324 323 324 326 327 326 326 325 326 324 325 324 324
313 313 312 312 314 317 317 320 318 318 317 317 320 323 324 323 324 323 323 322 321 320
312 312 312 312 313 315 316 317 316 317 318 318 319 320 319 319 320 318 318 319 319 317
311 311 311 312 312 313 315 316 318 320 318 317 316 318 318 317 317 316 316 316 316 313
309 310 310 311 312 313 314 315 317 317 315 314 314 313 313 313 312 312 313 314 314 312
308 309 309 310 311 312 313 314 314 315 314 313 312 311 310 310 309 309 309 311 312 312
308 308 309 310 310 311 312 313 314 313 312 311 311 309 309 309 308 307 306 307 308 310
308 307 309 308 308 309 309 310 312 312 311 311 309 301 302 305 305 304 305 305 304 306
309 308 308 307 307 306 306 307 309 309 310 309 307 298 298 299 301 301 301 301 301 302
309 307 308 307 306 304 304 305 305 306 307 308 307 297 296 296 298 297 297 298 298 301
310 307 307 307 305 303 303 302 303 304 305 306 307 297 295 297 297 297 297 297 297 296
311 308 307 307 305 305 304 304 303 303 304 302 306 296 295 298 299 299 299 301 301 297
312 309 308 307 306 306 305 305 303 303 303 303 303 303 296 296 305 305 304 303 303 303
Wind_Speed
2 3 3 3 4 3 2 2 1 1 1 6 3 6 7 6 4 4 4 6 6 8
1 2 4 5 3 3 3 3 5 1 3 4 5 4 6 5 4 4 3 4 7 7
0 2 4 5 4 3 3 1 5 4 4 5 6 6 6 3 6 6 3 4 7 5
1 3 4 5 5 3 4 3 6 5 6 6 7 8 7 6 8 7 6 5 8 6
2 3 4 4 4 3 6 4 5 6 8 7 7 4 8 8 7 10 10 8 8 7
2 3 3 3 4 5 6 5 6 8 8 7 7 9 8 9 8 8 7 6 9 9
4 3 2 3 3 4 5 6 6 6 7 7 7 9 8 8 8 8 7 6 6 6
4 3 3 4 4 4 5 5 5 7 6 5 6 5 7 6 6 7 7 6 6 6
5 5 4 4 5 5 5 5 5 5 6 5 3 6 8 7 5 5 5 5 5 4
6 6 5 5 5 5 5 4 4 5 5 5 4 7 9 9 5 5 5 4 4 4
7 6 6 6 6 5 4 4 4 4 4 3 2 6 7 8 6 5 5 5 5 5
8 7 7 6 6 4 4 4 4 4 5 5 3 6 7 7 5 5 5 4 5 5
10 9 8 8 7 4 4 5 4 4 4 5 4 8 9 6 3 4 4 4 5 8
9 10 9 7 5 5 5 4 4 5 4 6 7 7 13 12 5 4 4 4 4 4
Wind_Direction
67 58 50 57 92 72 58 92 130 141 124 110 109 123 131 119 120 133 145 123 123 126
326 70 68 65 78 76 81 83 105 273 242 123 143 153 123 142 128 139 117 131 129 135
305 28 57 73 89 136 88 59 114 111 108 97 112 118 118 119 135 122 142 128 117 103
37 61 55 68 73 80 70 71 93 103 85 90 111 116 127 117 128 117 111 101 114 108
111 70 66 69 72 68 91 57 75 87 86 79 73 80 104 106 107 118 118 118 113 110
130 112 100 74 58 66 90 74 60 81 83 85 84 81 67 81 79 79 86 113 130 138
165 173 138 112 82 85 92 97 77 63 80 84 84 85 82 87 86 82 78 83 93 108
162 149 124 117 111 99 90 102 109 103 74 75 93 109 109 97 96 95 84 64 65 65
155 145 132 121 124 116 105 97 109 109 119 113 93 116 98 108 107 99 103 105 83 73
160 148 147 137 129 130 138 131 130 127 132 137 143 138 126 127 127 129 118 114 102 80
161 155 153 150 153 146 141 150 143 145 147 146 160 151 145 125 122 116 125 138 142 134
164 155 156 163 163 149 138 155 178 184 172 177 192 171 160 139 131 130 143 150 160 162
166 162 168 170 169 158 164 177 165 173 194 196 198 183 191 166 148 154 177 191 191 194
170 173 174 162 157 161 167 158 183 203 205 209 202 197 198 199 178 184 188 208 203 199